Location: Newark
(13.9550°N, 109.0422°E)
Time: 07:53:18
(UTC+00:00)

Hubble Space Telescope - Pass Details

Date: 30 October 2019
Orbit: 536 x 540 km, 28.5° (Epoch: 17 November)

Event Time Altitude Azimuth Distance (km) Brightness Sun altitude
Exits shadow 22:01:12 - 317° (NW) 1,958 3.1 -9.5°
Reaches altitude 10° 22:02:13 10° 329° (NNW) 1,777 3.0 -9.3°
Maximum altitude 22:03:47 12° 352° (N) 1,661 3.1 -8.9°
Drops below altitude 10° 22:05:21 10° 15° (NNE) 1,776 3.5 -8.6°
Sets 22:08:58 0° 47° (NE) 2,666 4.9 -7.7°
